AAL1701 KTUS-KLAS

Flight info

Callsign AAL1701
Flight time 0h 59m
Altitude 32000
Route WLDKT4 BBALL PXR J11 DRK ELLDA RKSTR4
Aircraft A20N/M-SDE2E3FGHIRWXY/LB1

Departure

Time 2026-05-05 00:05
Airport Tucson International Airport (KTUS)

Arrival

Time 2026-05-05 01:04
Airport Harry Reid International Airport (KLAS)
Time Latitude Longitude Altitude Speed Heading
2026-05-04 23:49 32.12029 -110.93917 2603 ft 0 kts 54°
2026-05-04 23:54 32.12028 -110.93919 2603 ft 2 kts 54°
2026-05-04 23:54 32.12019 -110.93933 2603 ft 2 kts 47°
2026-05-04 23:55 32.12008 -110.93946 2603 ft 2 kts 41°
2026-05-04 23:55 32.11997 -110.93958 2603 ft 2 kts 42°
2026-05-04 23:55 32.11974 -110.93981 2603 ft 2 kts 42°
2026-05-04 23:56 32.11970 -110.93985 2603 ft 0 kts 42°
2026-05-04 23:58 32.11971 -110.93984 2603 ft 0 kts 46°
2026-05-04 23:58 32.11959 -110.93954 2604 ft 9 kts 140°
2026-05-04 23:58 32.11882 -110.93958 2605 ft 12 kts 217°
2026-05-04 23:59 32.11815 -110.93936 2606 ft 11 kts 133°
2026-05-04 23:59 32.11764 -110.93876 2609 ft 9 kts 135°
2026-05-04 23:59 32.11716 -110.93820 2610 ft 10 kts 135°
2026-05-04 23:59 32.11665 -110.93761 2611 ft 10 kts 135°
2026-05-05 00:00 32.11607 -110.93694 2614 ft 13 kts 135°
2026-05-05 00:00 32.11557 -110.93633 2615 ft 16 kts 135°
2026-05-05 00:00 32.11432 -110.93484 2619 ft 21 kts 134°
2026-05-05 00:00 32.11320 -110.93354 2622 ft 24 kts 136°
2026-05-05 00:01 32.11203 -110.93221 2626 ft 22 kts 136°
2026-05-05 00:01 32.11096 -110.93101 2628 ft 20 kts 135°
2026-05-05 00:01 32.11001 -110.92986 2632 ft 18 kts 134°
2026-05-05 00:01 32.10919 -110.92882 2635 ft 16 kts 135°
2026-05-05 00:02 32.10839 -110.92791 2638 ft 15 kts 136°
2026-05-05 00:02 32.10766 -110.92707 2640 ft 13 kts 135°
2026-05-05 00:02 32.10689 -110.92612 2643 ft 21 kts 133°
2026-05-05 00:02 32.10583 -110.92487 2647 ft 20 kts 135°
2026-05-05 00:03 32.10488 -110.92379 2651 ft 17 kts 136°
2026-05-05 00:03 32.10403 -110.92286 2655 ft 15 kts 135°
2026-05-05 00:03 32.10330 -110.92238 2657 ft 10 kts 207°
2026-05-05 00:03 32.10277 -110.92297 2656 ft 11 kts 225°
2026-05-05 00:04 32.10258 -110.92353 2655 ft 7 kts 301°
2026-05-05 00:04 32.10355 -110.92464 2651 ft 48 kts 315°
2026-05-05 00:04 32.10759 -110.92937 2636 ft 113 kts 314°
2026-05-05 00:04 32.11440 -110.93737 2706 ft 155 kts 313°
2026-05-05 00:05 32.12195 -110.94608 3312 ft 153 kts 311°
2026-05-05 00:05 32.12951 -110.95496 3925 ft 155 kts 311°
2026-05-05 00:05 32.13718 -110.96384 4501 ft 159 kts 309°
2026-05-05 00:05 32.14536 -110.97345 4924 ft 174 kts 309°
2026-05-05 00:06 32.15426 -110.98399 5345 ft 191 kts 309°
2026-05-05 00:06 32.16403 -110.99560 5775 ft 208 kts 309°
2026-05-05 00:06 32.17479 -111.00833 6120 ft 232 kts 309°
2026-05-05 00:06 32.18667 -111.02241 6609 ft 251 kts 310°
2026-05-05 00:07 32.19935 -111.03739 7109 ft 269 kts 310°
2026-05-05 00:07 32.21303 -111.05341 7752 ft 282 kts 313°
2026-05-05 00:07 32.22841 -111.06780 8569 ft 289 kts 323°
2026-05-05 00:07 32.24616 -111.07953 9420 ft 295 kts 329°
2026-05-05 00:08 32.26475 -111.09011 10254 ft 299 kts 330°
2026-05-05 00:08 32.28389 -111.10077 10859 ft 312 kts 330°
2026-05-05 00:08 32.30398 -111.11202 11363 ft 327 kts 330°
2026-05-05 00:08 32.32473 -111.12365 12141 ft 332 kts 330°
2026-05-05 00:09 32.34542 -111.13525 12980 ft 335 kts 329°
2026-05-05 00:09 32.36632 -111.14699 13804 ft 337 kts 329°
2026-05-05 00:09 32.38755 -111.15891 14535 ft 341 kts 328°
2026-05-05 00:09 32.40927 -111.17119 15187 ft 348 kts 327°
2026-05-05 00:10 32.43147 -111.18376 15845 ft 354 kts 327°
2026-05-05 00:10 32.45387 -111.19645 16483 ft 359 kts 326°
2026-05-05 00:10 32.47657 -111.20934 17103 ft 365 kts 326°
2026-05-05 00:10 32.49949 -111.22237 17701 ft 370 kts 325°
2026-05-05 00:11 32.52289 -111.23570 18334 ft 375 kts 325°
2026-05-05 00:11 32.54642 -111.24911 19020 ft 376 kts 325°
2026-05-05 00:11 32.56992 -111.26247 19720 ft 377 kts 325°
2026-05-05 00:11 32.59349 -111.27589 20403 ft 378 kts 325°
2026-05-05 00:12 32.61755 -111.28960 21045 ft 381 kts 325°
2026-05-05 00:12 32.64124 -111.30311 21704 ft 382 kts 325°
2026-05-05 00:12 32.66530 -111.31679 22366 ft 383 kts 324°
2026-05-05 00:12 32.68924 -111.33044 22997 ft 384 kts 324°
2026-05-05 00:13 32.71331 -111.34417 23546 ft 388 kts 324°
2026-05-05 00:13 32.73763 -111.35806 24103 ft 391 kts 324°
2026-05-05 00:13 32.76239 -111.37222 24635 ft 394 kts 323°
2026-05-05 00:13 32.78695 -111.38627 25120 ft 398 kts 323°
2026-05-05 00:14 32.81204 -111.40067 25592 ft 402 kts 323°
2026-05-05 00:14 32.83724 -111.41511 26074 ft 406 kts 323°
2026-05-05 00:14 32.86274 -111.42973 26547 ft 409 kts 322°
2026-05-05 00:14 32.88839 -111.44441 27173 ft 407 kts 322°
2026-05-05 00:15 32.91389 -111.45896 27874 ft 403 kts 322°
2026-05-05 00:15 32.93859 -111.47369 28445 ft 397 kts 318°
2026-05-05 00:15 32.96212 -111.49016 28927 ft 390 kts 314°
2026-05-05 00:15 32.98405 -111.50826 29413 ft 383 kts 309°
2026-05-05 00:16 33.00481 -111.52820 29952 ft 377 kts 306°
2026-05-05 00:16 33.02441 -111.54820 30437 ft 375 kts 305°
2026-05-05 00:16 33.04425 -111.56862 30882 ft 375 kts 304°
2026-05-05 00:16 33.06405 -111.58900 31261 ft 377 kts 304°
2026-05-05 00:17 33.08374 -111.60928 31603 ft 378 kts 304°
2026-05-05 00:17 33.10366 -111.62982 31903 ft 379 kts 304°
2026-05-05 00:17 33.12386 -111.65059 31923 ft 380 kts 304°
2026-05-05 00:18 33.16385 -111.69171 31923 ft 380 kts 304°
2026-05-05 00:18 33.20383 -111.73284 31929 ft 380 kts 304°
2026-05-05 00:19 33.24380 -111.77402 31924 ft 380 kts 304°
2026-05-05 00:19 33.28375 -111.81524 31929 ft 381 kts 304°
2026-05-05 00:20 33.32386 -111.85668 31926 ft 379 kts 304°
2026-05-05 00:20 33.36352 -111.89771 31924 ft 380 kts 304°
2026-05-05 00:21 33.40538 -111.93720 31920 ft 388 kts 310°
2026-05-05 00:21 33.45254 -111.97128 31927 ft 402 kts 317°
2026-05-05 00:22 33.50451 -111.99827 31925 ft 412 kts 326°
2026-05-05 00:22 33.55949 -112.02029 31927 ft 415 kts 327°
2026-05-05 00:23 33.61412 -112.04180 31932 ft 415 kts 327°
2026-05-05 00:23 33.66880 -112.06344 31934 ft 414 kts 327°
2026-05-05 00:24 33.72378 -112.08534 31941 ft 414 kts 327°
2026-05-05 00:24 33.77843 -112.10713 31947 ft 414 kts 327°
2026-05-05 00:25 33.83293 -112.12888 31952 ft 414 kts 327°
2026-05-05 00:25 33.88767 -112.15077 31967 ft 414 kts 327°
2026-05-05 00:26 33.94231 -112.17261 31966 ft 413 kts 327°
2026-05-05 00:26 33.99685 -112.19448 31973 ft 414 kts 327°
2026-05-05 00:27 34.05164 -112.21644 31981 ft 412 kts 327°
2026-05-05 00:27 34.10600 -112.23833 31987 ft 415 kts 327°
2026-05-05 00:28 34.16081 -112.26036 31989 ft 412 kts 326°
2026-05-05 00:28 34.21544 -112.28241 31997 ft 414 kts 326°
2026-05-05 00:29 34.27004 -112.30444 32003 ft 414 kts 327°
2026-05-05 00:29 34.32459 -112.32645 32013 ft 414 kts 327°
2026-05-05 00:30 34.37944 -112.34862 32016 ft 415 kts 327°
2026-05-05 00:30 34.43411 -112.37077 32023 ft 414 kts 326°
2026-05-05 00:31 34.48868 -112.39297 32033 ft 415 kts 327°
2026-05-05 00:31 34.54345 -112.41518 32038 ft 413 kts 326°
2026-05-05 00:32 34.59813 -112.43746 32042 ft 413 kts 326°
2026-05-05 00:32 34.65161 -112.46195 32046 ft 400 kts 316°
2026-05-05 00:32 34.67485 -112.47964 32048 ft 388 kts 307°
2026-05-05 00:33 34.69482 -112.50088 32042 ft 377 kts 299°
2026-05-05 00:33 34.72476 -112.55107 32035 ft 364 kts 284°
2026-05-05 00:34 34.74428 -112.60708 32031 ft 361 kts 280°
2026-05-05 00:34 34.76285 -112.66371 32027 ft 362 kts 279°
2026-05-05 00:35 34.78142 -112.72066 32022 ft 360 kts 279°
2026-05-05 00:35 34.79976 -112.77687 32031 ft 360 kts 279°
2026-05-05 00:36 34.81817 -112.83363 32030 ft 361 kts 279°
2026-05-05 00:36 34.83645 -112.89005 32032 ft 359 kts 279°
2026-05-05 00:37 34.85483 -112.94679 32031 ft 360 kts 279°
2026-05-05 00:37 34.87308 -113.00319 32028 ft 361 kts 279°
2026-05-05 00:38 34.89146 -113.06034 32024 ft 361 kts 279°
2026-05-05 00:38 34.90973 -113.11715 32029 ft 360 kts 279°
2026-05-05 00:39 34.92788 -113.17367 32030 ft 362 kts 279°
2026-05-05 00:39 34.94618 -113.23090 32020 ft 362 kts 279°
2026-05-05 00:40 34.96476 -113.28805 32027 ft 366 kts 281°
2026-05-05 00:40 34.98906 -113.34365 32014 ft 380 kts 289°
2026-05-05 00:41 35.02121 -113.39581 32003 ft 388 kts 297°
2026-05-05 00:41 35.06026 -113.44180 32006 ft 393 kts 304°
2026-05-05 00:42 35.10228 -113.48443 32001 ft 396 kts 306°
2026-05-05 00:42 35.14496 -113.52736 32005 ft 396 kts 305°
2026-05-05 00:43 35.18742 -113.57019 32000 ft 395 kts 305°
2026-05-05 00:43 35.22929 -113.61248 31393 ft 394 kts 306°
2026-05-05 00:43 35.25059 -113.63425 30339 ft 406 kts 307°
2026-05-05 00:44 35.27231 -113.65642 29317 ft 417 kts 307°
2026-05-05 00:44 35.29507 -113.67955 28435 ft 423 kts 307°
2026-05-05 00:44 35.31771 -113.70245 27846 ft 421 kts 308°
2026-05-05 00:44 35.34011 -113.72501 27282 ft 419 kts 308°
2026-05-05 00:45 35.36243 -113.74763 26656 ft 418 kts 308°
2026-05-05 00:45 35.38475 -113.77023 26019 ft 416 kts 309°
2026-05-05 00:45 35.40690 -113.79272 25497 ft 412 kts 309°
2026-05-05 00:45 35.42878 -113.81494 25013 ft 407 kts 310°
2026-05-05 00:46 35.45041 -113.83695 24518 ft 402 kts 310°
2026-05-05 00:46 35.47177 -113.85873 24022 ft 397 kts 311°
2026-05-05 00:46 35.49282 -113.88020 23577 ft 391 kts 311°
2026-05-05 00:46 35.51344 -113.90128 23073 ft 387 kts 311°
2026-05-05 00:47 35.53394 -113.92223 22568 ft 383 kts 312°
2026-05-05 00:47 35.55438 -113.94317 21937 ft 382 kts 312°
2026-05-05 00:47 35.57466 -113.96390 21317 ft 381 kts 313°
2026-05-05 00:47 35.59502 -113.98475 20755 ft 379 kts 312°
2026-05-05 00:48 35.61511 -114.00534 20161 ft 378 kts 313°
2026-05-05 00:48 35.63530 -114.02608 19596 ft 376 kts 313°
2026-05-05 00:48 35.65493 -114.04621 18936 ft 368 kts 314°
2026-05-05 00:48 35.67435 -114.06615 17894 ft 367 kts 314°
2026-05-05 00:49 35.69389 -114.08630 16800 ft 365 kts 314°
2026-05-05 00:49 35.71280 -114.10572 16219 ft 349 kts 315°
2026-05-05 00:49 35.73103 -114.12437 16083 ft 333 kts 314°
2026-05-05 00:49 35.74823 -114.14252 15971 ft 317 kts 309°
2026-05-05 00:50 35.76224 -114.16251 15873 ft 303 kts 299°
2026-05-05 00:50 35.77325 -114.18475 15888 ft 306 kts 293°
2026-05-05 00:50 35.78332 -114.20770 15871 ft 306 kts 292°
2026-05-05 00:50 35.79330 -114.23075 15567 ft 308 kts 292°
2026-05-05 00:51 35.80341 -114.25396 15141 ft 308 kts 293°
2026-05-05 00:51 35.81355 -114.27710 14731 ft 306 kts 294°
2026-05-05 00:51 35.82360 -114.29995 14343 ft 304 kts 294°
2026-05-05 00:51 35.83383 -114.32263 13954 ft 303 kts 296°
2026-05-05 00:52 35.84545 -114.34462 13548 ft 304 kts 301°
2026-05-05 00:52 35.85801 -114.36523 13143 ft 304 kts 304°
2026-05-05 00:52 35.87101 -114.38602 12738 ft 303 kts 304°
2026-05-05 00:52 35.88393 -114.40651 12361 ft 301 kts 303°
2026-05-05 00:53 35.89659 -114.42677 11991 ft 300 kts 304°
2026-05-05 00:53 35.90930 -114.44710 11598 ft 299 kts 304°
2026-05-05 00:53 35.92196 -114.46743 11217 ft 298 kts 304°
2026-05-05 00:53 35.93450 -114.48757 10843 ft 297 kts 304°
2026-05-05 00:54 35.94703 -114.50771 10470 ft 297 kts 304°
2026-05-05 00:54 35.95953 -114.52774 10106 ft 295 kts 304°
2026-05-05 00:54 35.97205 -114.54798 9740 ft 294 kts 304°
2026-05-05 00:54 35.98428 -114.56782 9380 ft 293 kts 304°
2026-05-05 00:55 35.99654 -114.58775 9014 ft 293 kts 303°
2026-05-05 00:55 36.00890 -114.60783 8667 ft 291 kts 303°
2026-05-05 00:55 36.02110 -114.62769 8343 ft 288 kts 303°
2026-05-05 00:55 36.03304 -114.64716 8018 ft 285 kts 303°
2026-05-05 00:56 36.04397 -114.66727 7921 ft 271 kts 297°
2026-05-05 00:56 36.05344 -114.68630 7906 ft 256 kts 296°
2026-05-05 00:56 36.06244 -114.70464 7894 ft 241 kts 296°
2026-05-05 00:56 36.07055 -114.72221 7869 ft 227 kts 286°
2026-05-05 00:57 36.07384 -114.74000 7931 ft 209 kts 269°
2026-05-05 00:57 36.07429 -114.75798 7698 ft 207 kts 266°
2026-05-05 00:57 36.07448 -114.77558 7351 ft 207 kts 266°
2026-05-05 00:57 36.07456 -114.79339 7016 ft 204 kts 265°
2026-05-05 00:58 36.07457 -114.81081 6759 ft 201 kts 264°
2026-05-05 00:58 36.07452 -114.82779 6508 ft 199 kts 265°
2026-05-05 00:58 36.07445 -114.84499 6262 ft 198 kts 265°
2026-05-05 00:58 36.07437 -114.86168 6015 ft 196 kts 264°
2026-05-05 00:59 36.07429 -114.87862 5769 ft 196 kts 264°
2026-05-05 00:59 36.07422 -114.89526 5526 ft 196 kts 264°
2026-05-05 00:59 36.07416 -114.91197 5284 ft 194 kts 264°
2026-05-05 00:59 36.07410 -114.92849 5033 ft 191 kts 265°
2026-05-05 01:00 36.07406 -114.94472 4785 ft 185 kts 264°
2026-05-05 01:00 36.07402 -114.96021 4551 ft 179 kts 264°
2026-05-05 01:00 36.07397 -114.97532 4329 ft 172 kts 265°
2026-05-05 01:00 36.07394 -114.98985 4114 ft 165 kts 264°
2026-05-05 01:01 36.07393 -115.00344 3920 ft 149 kts 263°
2026-05-05 01:01 36.07392 -115.01544 3719 ft 134 kts 264°
2026-05-05 01:01 36.07389 -115.02676 3546 ft 130 kts 264°
2026-05-05 01:01 36.07383 -115.03775 3404 ft 129 kts 263°
2026-05-05 01:02 36.07381 -115.04891 3248 ft 129 kts 264°
2026-05-05 01:02 36.07378 -115.05988 3083 ft 129 kts 265°
2026-05-05 01:02 36.07378 -115.07102 2924 ft 128 kts 264°
2026-05-05 01:02 36.07377 -115.08189 2749 ft 128 kts 264°
2026-05-05 01:03 36.07380 -115.09280 2584 ft 127 kts 265°
2026-05-05 01:03 36.07378 -115.10390 2418 ft 128 kts 264°
2026-05-05 01:03 36.07370 -115.11478 2262 ft 128 kts 264°
2026-05-05 01:03 36.07368 -115.12576 2106 ft 127 kts 265°
2026-05-05 01:04 36.07362 -115.13609 2087 ft 104 kts 271°
2026-05-05 01:04 36.07363 -115.14677 2119 ft 40 kts 272°
2026-05-05 01:04 36.07409 -115.14913 2127 ft 19 kts 294°
2026-05-05 01:05 36.07455 -115.15019 2131 ft 10 kts 300°
2026-05-05 01:05 36.07503 -115.15015 2130 ft 10 kts 77°
2026-05-05 01:05 36.07498 -115.14902 2126 ft 14 kts 91°
2026-05-05 01:05 36.07498 -115.14758 2120 ft 18 kts 89°
2026-05-05 01:06 36.07501 -115.14586 2115 ft 21 kts 90°
2026-05-05 01:06 36.07500 -115.14395 2109 ft 23 kts 90°
2026-05-05 01:06 36.07505 -115.14186 2102 ft 25 kts 91°
2026-05-05 01:06 36.07499 -115.13959 2095 ft 27 kts 90°
2026-05-05 01:07 36.07502 -115.13720 2089 ft 28 kts 90°
2026-05-05 01:07 36.07501 -115.13529 2083 ft 17 kts 92°
2026-05-05 01:07 36.07531 -115.13393 2079 ft 17 kts 32°
2026-05-05 01:07 36.07653 -115.13386 2078 ft 17 kts 360°
2026-05-05 01:08 36.07772 -115.13375 2076 ft 16 kts
2026-05-05 01:08 36.07883 -115.13383 2075 ft 14 kts 325°
2026-05-05 01:08 36.07905 -115.13480 2077 ft 9 kts 271°
2026-05-05 01:08 36.07919 -115.13528 2079 ft 4 kts 327°
2026-05-05 01:09 36.07954 -115.13530 2078 ft 7 kts
2026-05-05 01:09 36.07984 -115.13529 2078 ft 0 kts 359°